TIV3410 KBOS-EGAC

Flight info

Callsign TIV3410
Flight time N/A
Altitude 41000
Route CELTK7 CELTK DCT FRILL DCT BRADD N349B JOOPY/M086F410 DCT 49N050W 51N040W 53N030W 54N020W DCT VENER/N0492F410 DCT KOKIB DCT SLG DCT ERNAN DCT LIRGU
Aircraft C750/M-SBDE3FGHRWXY/S

Departure

Time 2026-05-04 05:18
Airport Boston Logan International Airport (KBOS)

Arrival

Time N/A
Airport George Best Belfast City Airport (EGAC)
Time Latitude Longitude Altitude Speed Heading
2026-05-04 04:47 42.37409 -71.02180 22 ft 0 kts 314°
2026-05-04 05:06 42.37315 -71.01842 22 ft 15 kts 132°
2026-05-04 05:06 42.37246 -71.01755 23 ft 12 kts 134°
2026-05-04 05:06 42.37191 -71.01683 22 ft 10 kts 136°
2026-05-04 05:07 42.37145 -71.01620 23 ft 9 kts 134°
2026-05-04 05:07 42.37107 -71.01568 23 ft 7 kts 135°
2026-05-04 05:07 42.37076 -71.01526 22 ft 5 kts 136°
2026-05-04 05:09 42.36641 -71.01187 22 ft 7 kts 199°
2026-05-04 05:09 42.36593 -71.01209 23 ft 8 kts 199°
2026-05-04 05:10 42.36542 -71.01232 22 ft 8 kts 199°
2026-05-04 05:10 42.36480 -71.01261 22 ft 9 kts 199°
2026-05-04 05:10 42.36421 -71.01289 23 ft 9 kts 199°
2026-05-04 05:10 42.36364 -71.01317 22 ft 10 kts 199°
2026-05-04 05:11 42.36310 -71.01260 22 ft 12 kts 123°
2026-05-04 05:11 42.36265 -71.01156 22 ft 14 kts 120°
2026-05-04 05:11 42.36222 -71.01027 22 ft 16 kts 113°
2026-05-04 05:11 42.36173 -71.00879 23 ft 18 kts 114°
2026-05-04 05:12 42.36120 -71.00712 23 ft 20 kts 108°
2026-05-04 05:12 42.36071 -71.00524 24 ft 22 kts 110°
2026-05-04 05:12 42.36027 -71.00335 24 ft 20 kts 110°
2026-05-04 05:12 42.35981 -71.00168 23 ft 18 kts 109°
2026-05-04 05:13 42.35920 -71.00035 23 ft 16 kts 129°
2026-05-04 05:13 42.35848 -70.99939 22 ft 14 kts 134°
2026-05-04 05:13 42.35785 -70.99855 22 ft 12 kts 137°
2026-05-04 05:13 42.35733 -70.99784 22 ft 10 kts 134°
2026-05-04 05:14 42.35685 -70.99717 24 ft 10 kts 134°
2026-05-04 05:14 42.35633 -70.99646 22 ft 11 kts 134°
2026-05-04 05:14 42.35578 -70.99569 23 ft 12 kts 128°
2026-05-04 05:14 42.35590 -70.99500 23 ft 0 kts 43°
2026-05-04 05:17 42.35594 -70.99495 24 ft 3 kts 42°
2026-05-04 05:17 42.35623 -70.99455 23 ft 7 kts 47°
2026-05-04 05:17 42.35653 -70.99424 23 ft 4 kts
2026-05-04 05:17 42.35672 -70.99442 22 ft 5 kts 310°
2026-05-04 05:18 42.35896 -70.99748 24 ft 91 kts 315°
2026-05-04 05:18 42.36505 -71.00573 32 ft 147 kts 313°
2026-05-04 05:18 42.37245 -71.01505 526 ft 145 kts 315°
2026-05-04 05:18 42.38014 -71.02462 864 ft 162 kts 313°
2026-05-04 05:19 42.38799 -71.03733 985 ft 191 kts 299°
2026-05-04 05:19 42.39467 -71.05445 1174 ft 221 kts 296°
2026-05-04 05:19 42.39963 -71.06701 1420 ft 237 kts 297°
2026-05-04 05:19 42.40596 -71.09518 2551 ft 235 kts 271°
2026-05-04 05:20 42.40446 -71.10975 3156 ft 238 kts 257°
2026-05-04 05:20 42.39653 -71.12965 4029 ft 243 kts 240°
2026-05-04 05:20 42.38669 -71.14822 4955 ft 243 kts 240°
2026-05-04 05:20 42.37691 -71.16698 5817 ft 244 kts 241°
2026-05-04 05:21 42.36500 -71.18388 6618 ft 258 kts 223°
2026-05-04 05:21 42.34821 -71.19413 7447 ft 276 kts 202°
2026-05-04 05:21 42.32807 -71.19485 8285 ft 298 kts 176°
2026-05-04 05:21 42.30797 -71.18628 9135 ft 307 kts 165°
2026-05-04 05:22 42.28802 -71.17609 9857 ft 313 kts 165°
2026-05-04 05:22 42.26726 -71.16567 10317 ft 326 kts 165°
2026-05-04 05:22 42.24643 -71.15059 10258 ft 361 kts 146°
2026-05-04 05:22 42.22636 -71.12729 10346 ft 383 kts 139°
2026-05-04 05:23 42.20682 -71.10258 11025 ft 384 kts 140°
2026-05-04 05:23 42.18671 -71.07868 11618 ft 387 kts 141°
2026-05-04 05:23 42.17026 -71.05023 12059 ft 395 kts 118°
2026-05-04 05:23 42.16116 -71.01561 12705 ft 395 kts 99°
2026-05-04 05:24 42.16052 -70.97884 13272 ft 393 kts 80°
2026-05-04 05:24 42.16470 -70.94235 13854 ft 394 kts 77°
2026-05-04 05:24 42.16944 -70.90579 14363 ft 398 kts 76°
2026-05-04 05:24 42.17420 -70.86886 14896 ft 401 kts 76°
2026-05-04 05:25 42.17875 -70.83160 15399 ft 405 kts 77°
2026-05-04 05:25 42.18332 -70.79389 15920 ft 408 kts 77°
2026-05-04 05:25 42.18801 -70.75607 16456 ft 412 kts 77°
2026-05-04 05:25 42.19277 -70.71788 17025 ft 414 kts 77°
2026-05-04 05:26 42.19747 -70.67935 17574 ft 418 kts 77°
2026-05-04 05:26 42.20220 -70.64036 18127 ft 422 kts 77°
2026-05-04 05:26 42.20698 -70.60118 18641 ft 425 kts 77°
2026-05-04 05:26 42.21180 -70.56173 19149 ft 428 kts 77°
2026-05-04 05:27 42.21663 -70.52185 19664 ft 432 kts 77°
2026-05-04 05:28 42.25114 -70.23329 23070 ft 457 kts 78°
2026-05-04 05:29 42.25610 -70.19132 23521 ft 460 kts 78°
2026-05-04 05:29 42.26114 -70.14843 23907 ft 464 kts 78°
2026-05-04 05:29 42.26378 -70.10473 24266 ft 470 kts 88°
2026-05-04 05:29 42.26092 -70.06062 24705 ft 474 kts 98°
2026-05-04 05:31 42.25524 -69.75095 27680 ft 480 kts 63°
2026-05-04 05:31 42.26920 -69.71000 28103 ft 481 kts 61°
2026-05-04 05:32 42.28328 -69.66877 28538 ft 484 kts 61°
2026-05-04 05:32 42.29736 -69.62714 28957 ft 488 kts 61°
2026-05-04 05:32 42.31139 -69.58587 29366 ft 490 kts 61°
2026-05-04 05:33 42.34016 -69.50145 30111 ft 497 kts 62°
2026-05-04 05:33 42.35458 -69.45872 30407 ft 501 kts 62°
2026-05-04 05:33 42.36907 -69.41578 30722 ft 504 kts 62°
2026-05-04 05:33 42.38371 -69.37253 31091 ft 505 kts 62°
2026-05-04 05:34 42.39828 -69.32936 31533 ft 505 kts 62°
2026-05-04 05:34 42.41284 -69.28605 31910 ft 507 kts 63°
2026-05-04 05:34 42.42745 -69.24255 32310 ft 507 kts 63°
2026-05-04 05:34 42.44205 -69.19903 32705 ft 508 kts 63°
2026-05-04 05:35 42.45672 -69.15530 33022 ft 512 kts 63°
2026-05-04 05:35 42.47147 -69.11122 33378 ft 514 kts 63°
2026-05-04 05:35 42.48615 -69.06720 33893 ft 512 kts 64°
2026-05-04 05:35 42.50083 -69.02314 34298 ft 512 kts 64°
2026-05-04 05:36 42.51548 -68.97920 34669 ft 512 kts 64°
2026-05-04 05:36 42.52994 -68.93567 35052 ft 512 kts 64°
2026-05-04 05:36 42.54453 -68.89165 35437 ft 512 kts 64°
2026-05-04 05:36 42.55914 -68.84755 35804 ft 512 kts 64°
2026-05-04 05:37 42.57374 -68.80344 36150 ft 513 kts 64°
2026-05-04 05:37 42.58834 -68.75922 36528 ft 513 kts 64°
2026-05-04 05:37 42.60295 -68.71487 36948 ft 513 kts 64°
2026-05-04 05:38 42.63195 -68.62670 37834 ft 511 kts 64°
2026-05-04 05:38 42.64642 -68.58260 38222 ft 511 kts 65°
2026-05-04 05:38 42.66085 -68.53849 38602 ft 511 kts 65°
2026-05-04 05:38 42.67529 -68.49433 38885 ft 512 kts 65°
2026-05-04 05:39 42.68971 -68.45014 39150 ft 513 kts 65°
2026-05-04 05:39 42.71859 -68.36146 39790 ft 513 kts 65°
2026-05-04 05:39 42.73282 -68.31765 40103 ft 512 kts 65°
2026-05-04 05:40 42.76175 -68.22840 40722 ft 511 kts 65°
2026-05-04 05:40 42.77611 -68.18392 40841 ft 515 kts 65°
2026-05-04 05:40 42.79062 -68.13898 40854 ft 523 kts 66°
2026-05-04 05:41 42.82006 -68.04750 40867 ft 538 kts 66°
2026-05-04 05:41 42.85042 -67.95282 40866 ft 552 kts 66°
2026-05-04 05:42 42.88131 -67.85617 40857 ft 559 kts 66°
2026-05-04 05:42 42.91227 -67.75892 40853 ft 559 kts 66°
2026-05-04 05:43 42.94318 -67.66146 40848 ft 561 kts 66°
2026-05-04 05:45 43.06578 -67.27145 40808 ft 559 kts 66°
2026-05-04 05:47 43.20119 -66.88985 40805 ft 557 kts 55°
2026-05-04 05:47 43.24213 -66.79989 40786 ft 556 kts 58°
2026-05-04 05:48 43.28342 -66.70994 40775 ft 557 kts 56°
2026-05-04 05:48 43.32473 -66.61991 40776 ft 558 kts 58°
2026-05-04 05:49 43.36567 -66.52957 40767 ft 557 kts 57°
2026-05-04 05:49 43.40693 -66.43931 40753 ft 557 kts 58°
2026-05-04 05:51 43.57056 -66.07614 40716 ft 556 kts 58°
2026-05-04 05:52 43.61108 -65.98535 40678 ft 556 kts 58°
2026-05-04 05:52 43.65173 -65.89431 40676 ft 557 kts 58°
2026-05-04 05:54 43.81296 -65.52987 40647 ft 555 kts 58°
2026-05-04 05:55 43.85314 -65.43827 40632 ft 554 kts 58°
2026-05-04 05:55 43.89281 -65.34762 40626 ft 554 kts 59°
2026-05-04 05:56 43.93280 -65.25595 40613 ft 556 kts 59°
2026-05-04 05:56 43.97276 -65.16403 40605 ft 556 kts 59°
2026-05-04 05:57 44.01263 -65.07203 40596 ft 555 kts 59°
2026-05-04 05:57 44.05247 -64.97980 40593 ft 556 kts 59°
2026-05-04 05:58 44.08552 -64.90308 40587 ft 557 kts 59°
2026-05-04 05:58 44.13168 -64.79557 40579 ft 556 kts 59°
2026-05-04 05:59 44.17119 -64.70326 40554 ft 555 kts 59°
2026-05-04 05:59 44.21063 -64.61076 40529 ft 555 kts 59°
2026-05-04 06:00 44.24368 -64.53304 40504 ft 556 kts 59°
2026-05-04 06:00 44.28268 -64.44110 40491 ft 553 kts 60°
2026-05-04 06:01 44.32185 -64.34836 40482 ft 557 kts 60°
2026-05-04 06:03 44.47771 -63.97635 40409 ft 553 kts 60°
2026-05-04 06:05 44.65212 -63.55492 40389 ft 557 kts 61°
2026-05-04 06:06 44.69050 -63.46077 40383 ft 555 kts 61°
2026-05-04 06:06 44.72894 -63.36678 40391 ft 554 kts 61°
2026-05-04 06:07 44.76714 -63.27267 40370 ft 555 kts 61°
2026-05-04 06:07 44.80537 -63.17846 40341 ft 555 kts 62°
2026-05-04 06:08 44.84399 -63.08323 40365 ft 562 kts 62°
2026-05-04 06:08 44.88244 -62.98758 40343 ft 560 kts 62°
2026-05-04 06:09 44.92058 -62.89250 40329 ft 560 kts 62°
2026-05-04 06:11 45.07282 -62.50992 40275 ft 557 kts 63°
2026-05-04 06:13 45.22369 -62.12599 40168 ft 559 kts 63°
2026-05-04 06:14 45.35450 -61.78802 40096 ft 558 kts 63°
2026-05-04 06:15 45.39172 -61.69138 40136 ft 559 kts 64°
2026-05-04 06:15 45.42899 -61.59403 40067 ft 559 kts 63°
2026-05-04 06:16 45.46599 -61.49710 40053 ft 555 kts 63°
2026-05-04 06:16 45.50295 -61.39989 40043 ft 558 kts 64°
2026-05-04 06:17 45.53984 -61.30259 40026 ft 556 kts 64°
2026-05-04 06:17 45.57637 -61.20596 40030 ft 556 kts 64°
2026-05-04 06:18 45.61295 -61.10854 40030 ft 556 kts 64°
2026-05-04 06:20 45.75832 -60.71871 39965 ft 555 kts 64°
2026-05-04 06:21 45.84833 -60.47484 39947 ft 553 kts 65°
2026-05-04 06:22 45.88426 -60.37680 39962 ft 553 kts 65°
2026-05-04 06:25 46.13244 -59.68975 39976 ft 553 kts 65°
2026-05-04 06:26 46.16750 -59.59098 39992 ft 554 kts 66°
2026-05-04 06:26 46.20244 -59.49230 40010 ft 551 kts 66°
2026-05-04 06:27 46.28949 -59.24538 40070 ft 556 kts 67°
2026-05-04 06:28 46.32439 -59.14520 40069 ft 557 kts 67°
2026-05-04 06:28 46.35935 -59.04529 40083 ft 556 kts 67°
2026-05-04 06:29 46.39408 -58.94501 40130 ft 557 kts 67°
2026-05-04 06:29 46.42862 -58.84536 40130 ft 556 kts 67°
2026-05-04 06:30 46.46336 -58.74446 40139 ft 556 kts 67°
2026-05-04 06:30 46.49762 -58.64474 40173 ft 556 kts 67°
2026-05-04 06:31 46.53206 -58.54403 40171 ft 556 kts 68°
2026-05-04 06:31 46.56638 -58.44331 40186 ft 556 kts 68°
2026-05-04 06:33 46.70267 -58.03945 40248 ft 555 kts 68°
2026-05-04 06:34 46.73650 -57.93820 40253 ft 555 kts 68°
2026-05-04 06:34 46.77018 -57.83704 40265 ft 556 kts 68°
2026-05-04 06:36 46.90465 -57.42913 40317 ft 557 kts 69°
2026-05-04 06:37 46.93802 -57.32690 40331 ft 557 kts 69°
2026-05-04 06:37 46.97108 -57.22520 40348 ft 557 kts 69°
2026-05-04 06:38 47.00424 -57.12280 40368 ft 557 kts 69°
2026-05-04 06:40 47.13604 -56.71167 40369 ft 559 kts 69°
2026-05-04 06:40 47.16876 -56.60880 40373 ft 554 kts 69°
2026-05-04 06:41 47.20120 -56.50589 40372 ft 555 kts 69°
2026-05-04 06:41 47.23363 -56.40302 40358 ft 555 kts 69°
2026-05-04 06:42 47.26590 -56.29992 40371 ft 554 kts 69°
2026-05-04 06:44 47.38871 -55.90495 40335 ft 551 kts 70°
2026-05-04 06:44 47.42028 -55.80150 40337 ft 553 kts 70°
2026-05-04 06:45 47.45196 -55.69845 40340 ft 553 kts 69°
2026-05-04 06:45 47.48337 -55.59527 40401 ft 549 kts 70°
2026-05-04 06:46 47.51472 -55.49188 40382 ft 550 kts 70°
2026-05-04 06:46 47.54610 -55.38828 40400 ft 551 kts 70°
2026-05-04 06:48 47.67007 -54.97382 40504 ft 545 kts 70°
2026-05-04 06:50 47.79191 -54.55953 40524 ft 548 kts 71°
2026-05-04 06:51 47.82219 -54.45524 40512 ft 549 kts 71°
2026-05-04 06:51 47.85251 -54.35100 40531 ft 547 kts 71°
2026-05-04 06:52 47.88233 -54.24715 40541 ft 549 kts 71°
2026-05-04 06:52 47.91255 -54.14280 40523 ft 548 kts 71°
2026-05-04 06:53 47.94221 -54.03806 40525 ft 548 kts 71°
2026-05-04 06:53 47.97243 -53.93324 40535 ft 547 kts 71°
2026-05-04 06:54 48.00193 -53.82824 40556 ft 549 kts 72°
2026-05-04 06:54 48.03187 -53.72311 40561 ft 550 kts 71°
2026-05-04 06:55 48.06134 -53.61767 40558 ft 547 kts 72°
2026-05-04 06:55 48.09095 -53.51223 40579 ft 549 kts 72°
2026-05-04 06:57 48.20831 -53.08807 40601 ft 551 kts 72°
2026-05-04 06:58 48.23747 -52.98152 40595 ft 553 kts 72°
2026-05-04 06:58 48.26664 -52.87457 40597 ft 555 kts 72°
2026-05-04 06:59 48.29564 -52.76795 40600 ft 552 kts 72°
2026-05-04 06:59 48.32443 -52.66091 40604 ft 552 kts 72°
2026-05-04 07:01 48.43883 -52.23245 40641 ft 552 kts 73°
2026-05-04 07:02 48.46728 -52.12480 40646 ft 554 kts 73°
2026-05-04 07:02 48.49562 -52.01678 40664 ft 554 kts 73°
2026-05-04 07:03 48.52403 -51.90802 40674 ft 553 kts 73°
2026-05-04 07:03 48.55204 -51.79994 40675 ft 553 kts 73°
2026-05-04 07:04 48.58008 -51.69146 40695 ft 557 kts 73°
2026-05-04 07:04 48.60831 -51.58164 40710 ft 561 kts 73°
2026-05-04 07:05 48.63646 -51.47170 40709 ft 561 kts 73°
2026-05-04 07:05 48.66448 -51.36158 40718 ft 561 kts 73°
2026-05-04 07:06 48.70648 -51.19564 40738 ft 562 kts 73°
2026-05-04 07:07 48.73417 -51.08552 40739 ft 562 kts 73°
2026-05-04 07:09 48.84467 -50.64083 40770 ft 565 kts 73°
2026-05-04 07:09 48.87210 -50.52901 40778 ft 565 kts 73°
2026-05-04 07:10 48.89942 -50.41708 40784 ft 564 kts 73°
2026-05-04 07:12 49.00810 -49.96854 40792 ft 567 kts 71°
2026-05-04 07:12 49.03615 -49.85651 40805 ft 566 kts 72°
2026-05-04 07:13 49.06430 -49.74437 40815 ft 569 kts 71°
2026-05-04 07:13 49.09241 -49.63175 40817 ft 567 kts 72°
2026-05-04 07:14 49.16196 -49.35002 40836 ft 567 kts 72°
2026-05-04 07:15 49.18950 -49.23787 40826 ft 567 kts 72°
2026-05-04 07:15 49.21719 -49.12423 40834 ft 566 kts 71°
2026-05-04 07:16 49.24441 -49.01189 40841 ft 567 kts 71°
2026-05-04 07:16 49.27173 -48.89875 40851 ft 566 kts 72°
2026-05-04 07:17 49.29888 -48.78555 40833 ft 566 kts 72°
2026-05-04 07:17 49.32604 -48.67187 40857 ft 567 kts 71°
2026-05-04 07:18 49.35302 -48.55809 40863 ft 568 kts 71°
2026-05-04 07:18 49.37995 -48.44423 40869 ft 568 kts 71°
2026-05-04 07:19 49.40657 -48.33099 40875 ft 567 kts 71°
2026-05-04 07:19 49.43324 -48.21697 40881 ft 566 kts 71°
2026-05-04 07:20 49.45976 -48.10285 40887 ft 566 kts 71°
2026-05-04 07:20 49.48621 -47.98852 40890 ft 569 kts 71°
2026-05-04 07:22 49.59087 -47.52999 40916 ft 569 kts 71°
2026-05-04 07:23 49.61677 -47.41498 40923 ft 567 kts 71°
2026-05-04 07:23 49.64247 -47.30023 40929 ft 566 kts 71°
2026-05-04 07:24 49.66808 -47.18523 40941 ft 566 kts 71°
2026-05-04 07:24 49.69356 -47.07018 40946 ft 566 kts 71°
2026-05-04 07:26 49.78950 -46.63122 40962 ft 563 kts 71°
2026-05-04 07:27 49.81425 -46.51643 40983 ft 561 kts 70°
2026-05-04 07:27 49.83877 -46.40209 40990 ft 560 kts 70°
2026-05-04 07:28 49.86321 -46.28745 41000 ft 560 kts 70°
2026-05-04 07:28 49.88755 -46.17267 41006 ft 560 kts 70°
2026-05-04 07:29 49.91175 -46.05790 41015 ft 560 kts 70°
2026-05-04 07:29 49.93569 -45.94366 41021 ft 560 kts 71°
2026-05-04 07:30 49.95968 -45.82859 41017 ft 560 kts 71°
2026-05-04 07:30 49.98352 -45.71355 41017 ft 560 kts 71°
2026-05-04 07:31 50.00726 -45.59831 41024 ft 555 kts 70°
2026-05-04 07:33 50.10024 -45.14052 41055 ft 551 kts 71°
2026-05-04 07:33 50.12283 -45.02764 41066 ft 550 kts 71°
2026-05-04 07:34 50.14550 -44.91372 41062 ft 550 kts 71°
2026-05-04 07:34 50.16804 -44.79976 41074 ft 550 kts 71°
2026-05-04 07:35 50.19047 -44.68573 41080 ft 546 kts 71°
2026-05-04 07:35 50.21246 -44.57322 41078 ft 542 kts 71°
2026-05-04 07:36 50.23437 -44.46054 41082 ft 542 kts 71°
2026-05-04 07:38 50.32051 -44.01077 41117 ft 539 kts 72°
2026-05-04 07:38 50.34181 -43.89784 41132 ft 540 kts 72°
2026-05-04 07:39 50.36294 -43.78518 41148 ft 540 kts 72°
2026-05-04 07:39 50.38395 -43.67244 41129 ft 539 kts 72°
2026-05-04 07:40 50.40487 -43.55953 41137 ft 539 kts 72°
2026-05-04 07:40 50.42566 -43.44661 41145 ft 539 kts 72°
2026-05-04 07:41 50.44635 -43.33363 41142 ft 540 kts 72°
2026-05-04 07:41 50.46690 -43.22063 41154 ft 543 kts 72°
2026-05-04 07:42 50.48746 -43.10677 41160 ft 542 kts 72°
2026-05-04 07:42 50.50795 -42.99283 41165 ft 542 kts 72°
2026-05-04 07:43 50.52832 -42.87872 41160 ft 542 kts 72°
2026-05-04 07:43 50.54861 -42.76417 41170 ft 545 kts 72°
2026-05-04 07:44 50.56885 -42.64937 41177 ft 544 kts 72°
2026-05-04 07:44 50.58898 -42.53433 41184 ft 545 kts 72°
2026-05-04 07:45 50.60900 -42.41931 41193 ft 544 kts 72°
2026-05-04 07:45 50.62886 -42.30444 41190 ft 548 kts 72°
2026-05-04 07:46 50.64874 -42.18862 41200 ft 548 kts 72°
2026-05-04 07:46 50.66849 -42.07272 41213 ft 547 kts 72°
2026-05-04 07:47 50.68815 -41.95677 41205 ft 547 kts 72°
2026-05-04 07:49 50.76542 -41.49298 41235 ft 547 kts 72°
2026-05-04 07:49 50.78447 -41.37656 41235 ft 547 kts 72°
2026-05-04 07:50 50.80345 -41.26003 41242 ft 547 kts 73°
2026-05-04 07:50 50.82211 -41.14433 41239 ft 545 kts 72°
2026-05-04 07:51 50.84079 -41.02801 41238 ft 546 kts 72°
2026-05-04 07:51 50.85930 -40.91168 41257 ft 545 kts 72°
2026-05-04 07:52 50.87767 -40.79565 41256 ft 544 kts 72°
2026-05-04 07:52 50.89591 -40.67942 41264 ft 544 kts 73°
2026-05-04 07:54 50.96766 -40.21436 41288 ft 542 kts 73°
2026-05-04 07:55 50.98515 -40.09882 41293 ft 542 kts 73°
2026-05-04 07:55 51.00401 -39.98326 41274 ft 537 kts 67°
2026-05-04 07:56 51.03199 -39.87375 41306 ft 534 kts 64°
2026-05-04 07:56 51.05946 -39.76379 41313 ft 535 kts 66°
2026-05-04 07:57 51.08687 -39.65377 41314 ft 535 kts 64°
2026-05-04 07:57 51.11435 -39.54372 41320 ft 535 kts 65°
2026-05-04 07:58 51.14160 -39.43289 41320 ft 537 kts 65°
2026-05-04 07:58 51.16896 -39.32217 41320 ft 537 kts 66°
2026-05-04 07:59 51.19600 -39.21130 41326 ft 537 kts 65°
2026-05-04 07:59 51.22296 -39.10089 41326 ft 537 kts 66°
2026-05-04 08:00 51.24989 -38.98949 41333 ft 538 kts 66°
2026-05-04 08:02 51.35667 -38.54313 41350 ft 537 kts 66°
2026-05-04 08:02 51.38314 -38.43113 41350 ft 537 kts 67°
2026-05-04 08:03 51.40943 -38.31915 41352 ft 537 kts 67°
2026-05-04 08:03 51.43568 -38.20686 41373 ft 537 kts 67°
2026-05-04 08:04 51.46174 -38.09472 41360 ft 537 kts 67°
2026-05-04 08:04 51.48757 -37.98303 41358 ft 537 kts 67°
2026-05-04 08:05 51.51343 -37.87060 41361 ft 537 kts 67°
2026-05-04 08:05 51.53916 -37.75818 41368 ft 537 kts 68°
2026-05-04 08:06 51.56484 -37.64531 41375 ft 537 kts 68°
2026-05-04 08:06 51.59039 -37.53246 41376 ft 537 kts 68°
2026-05-04 08:08 51.69131 -37.08064 41387 ft 537 kts 68°
2026-05-04 08:11 51.80299 -36.56892 41385 ft 539 kts 69°
2026-05-04 08:11 51.83989 -36.39698 41385 ft 538 kts 69°
2026-05-04 08:12 51.86420 -36.28290 41379 ft 538 kts 69°
2026-05-04 08:12 51.88850 -36.16822 41377 ft 538 kts 69°
2026-05-04 08:13 51.91262 -36.05374 41389 ft 537 kts 69°
2026-05-04 08:13 51.93666 -35.93905 41399 ft 537 kts 69°
2026-05-04 08:14 51.96052 -35.82448 41398 ft 537 kts 69°
2026-05-04 08:16 52.05106 -35.38380 41404 ft 536 kts 70°
2026-05-04 08:16 52.07425 -35.26934 41404 ft 536 kts 70°
2026-05-04 08:17 52.09747 -35.15404 41408 ft 537 kts 70°
2026-05-04 08:17 52.12061 -35.03848 41419 ft 536 kts 70°
2026-05-04 08:19 52.21187 -34.57580 41413 ft 536 kts 71°
2026-05-04 08:20 52.23439 -34.45990 41420 ft 536 kts 71°
2026-05-04 08:20 52.25679 -34.34393 41418 ft 536 kts 71°
2026-05-04 08:21 52.27908 -34.22779 41417 ft 536 kts 71°
2026-05-04 08:21 52.30129 -34.11143 41419 ft 536 kts 71°
2026-05-04 08:22 52.32329 -33.99537 41413 ft 534 kts 71°
2026-05-04 08:24 52.41014 -33.53016 41427 ft 534 kts 72°
2026-05-04 08:24 52.43141 -33.41446 41426 ft 534 kts 72°
2026-05-04 08:25 52.45269 -33.29795 41424 ft 534 kts 72°
2026-05-04 08:25 52.47389 -33.18114 41430 ft 534 kts 72°
2026-05-04 08:27 52.55736 -32.71376 41425 ft 533 kts 72°
2026-05-04 08:28 52.57792 -32.59671 41422 ft 532 kts 72°
2026-05-04 08:28 52.59838 -32.47954 41422 ft 533 kts 73°
2026-05-04 08:29 52.61870 -32.36232 41428 ft 533 kts 73°
2026-05-04 08:31 52.69878 -31.89277 41425 ft 532 kts 73°
2026-05-04 08:33 52.77689 -31.42219 41423 ft 532 kts 73°
2026-05-04 08:35 52.85318 -30.94956 41426 ft 532 kts 74°
2026-05-04 08:35 52.87195 -30.83125 41426 ft 532 kts 74°